GFSNIL_850_spd_000.txt.gz
Wind_Speed
20 23 22 19 15 12 9 8 8 10 13 15 17 18 18 19 20 20 21 21 22 23
23 23 21 19 16 12 10 9 10 12 14 17 18 19 19 20 20 21 21 23 24 26
24 21 20 17 14 12 11 11 12 14 16 18 19 19 20 20 21 22 23 26 27 28
22 21 19 16 14 13 12 12 13 16 17 18 19 20 20 21 23 25 27 27 29 30
20 19 17 15 14 13 12 13 15 16 18 19 19 21 22 23 26 28 29 30 30 31
19 17 16 15 14 13 12 14 15 17 18 19 20 22 24 26 28 29 30 30 31 31
17 16 15 14 13 12 13 14 16 17 18 20 21 23 26 28 29 30 30 29 29 29
16 14 14 13 11 12 13 14 16 17 19 21 23 25 28 28 29 30 30 29 26 25
15 14 12 11 11 11 13 14 16 18 20 22 25 27 29 30 27 29 29 27 25 23
13 11 10 10 11 11 13 15 17 20 22 25 28 29 30 28 26 28 26 25 27 26
11 10 10 10 10 11 14 16 18 21 25 27 28 29 29 27 25 25 24 26 26 29
10 9 9 8 10 13 15 17 20 24 26 28 27 28 29 25 23 23 26 26 28 32
10 7 7 9 12 14 16 20 23 24 25 26 27 28 25 21 21 25 27 28 32 31
6 6 9 10 12 15 19 22 23 24 24 26 26 26 24 20 21 25 27 31 32 34

GFSNIL_850_spd_003.txt.gz
Wind_Speed
23 25 27 28 26 20 15 10 8 9 10 13 16 17 18 18 18 18 18 18 20 21
26 25 28 28 23 18 13 10 9 10 12 14 16 18 19 18 18 17 18 20 22 23
25 27 28 25 20 16 12 10 10 11 13 15 17 18 19 18 17 18 20 22 24 25
28 28 25 21 17 14 12 11 10 12 14 15 17 18 18 17 18 20 22 24 26 26
28 26 23 19 16 14 12 11 11 13 14 15 17 18 18 18 20 23 25 27 27 28
25 23 20 17 15 14 11 10 11 12 14 16 17 19 19 20 23 25 27 27 28 27
23 20 18 16 15 11 10 10 11 12 15 17 18 18 21 23 25 27 28 28 26 23
21 19 17 15 12 10 9 10 11 13 16 17 18 20 23 25 27 28 28 26 23 22
19 18 15 12 9 8 8 10 12 15 17 18 20 23 25 27 27 27 26 25 23 23
18 15 12 9 7 6 8 11 14 16 17 20 22 24 26 26 26 25 25 24 24 24
15 12 9 7 5 6 10 12 15 17 19 22 24 25 26 26 25 24 22 22 23 24
12 10 6 3 5 8 11 13 15 18 21 22 23 24 25 24 23 22 22 22 22 26
10 6 3 4 7 10 12 14 17 18 20 21 22 23 23 20 19 21 23 22 23 26
6 3 4 7 9 11 13 15 17 18 19 20 22 23 22 21 17 20 23 23 24 27

GFSNIL_850_spd_006.txt.gz
Wind_Speed
31 26 26 29 33 30 26 20 14 9 7 7 8 11 13 15 15 15 14 15 16 17
31 29 30 32 32 29 24 17 13 10 8 8 9 11 13 15 15 15 15 16 18 19
31 29 28 31 31 27 21 16 13 10 8 9 10 12 14 15 15 15 17 18 20 21
32 28 30 31 29 24 18 15 12 10 9 9 11 13 14 15 16 17 19 20 22 23
32 32 32 29 25 20 17 14 12 10 9 10 12 13 15 16 17 19 21 22 24 24
30 31 30 26 22 19 16 13 10 9 9 11 13 15 16 16 19 21 22 23 23 23
31 29 26 23 20 17 14 11 9 8 10 12 14 16 17 18 20 21 22 23 22 22
29 27 24 21 18 14 11 9 8 9 11 13 15 16 17 19 20 21 21 21 21 19
27 25 22 19 14 11 9 7 8 10 13 15 15 18 20 21 21 20 20 20 20 19
25 22 19 14 11 8 7 8 10 12 14 15 17 19 20 21 21 19 20 20 19 19
22 18 15 11 8 6 7 9 11 13 14 17 18 19 21 22 20 19 17 17 18 19
17 14 11 8 5 6 7 10 11 13 15 17 18 20 22 22 20 16 17 17 19 20
14 10 8 6 5 6 8 10 12 14 16 17 18 21 22 22 17 16 17 18 19 19
12 9 6 3 4 6 8 10 12 14 16 18 20 21 21 20 16 15 19 20 20 20

GFSNIL_850_spd_009.txt.gz
Wind_Speed
39 35 34 35 35 33 31 28 23 18 12 8 7 8 10 12 13 14 13 13 13 14
36 35 32 34 34 32 28 25 22 17 12 8 7 9 10 12 14 14 14 14 14 16
33 32 34 34 34 32 26 24 20 15 11 9 8 9 11 13 14 14 14 15 16 19
33 34 33 33 32 28 25 22 18 14 10 9 9 10 12 13 14 15 15 17 19 21
36 34 32 30 29 26 24 20 16 12 9 8 9 11 13 14 16 16 17 19 21 22
35 32 31 30 27 26 22 18 13 10 9 9 11 13 14 16 16 17 19 20 20 21
34 33 31 29 26 22 18 13 10 8 8 10 12 14 16 17 18 19 19 20 20 21
31 30 29 26 22 18 14 11 8 7 8 10 13 15 16 18 20 20 19 21 20 19
30 28 24 21 18 14 11 8 7 7 9 12 15 16 17 20 20 20 20 20 21 20
28 24 20 17 14 11 8 6 6 8 10 13 15 17 18 20 21 21 19 22 21 19
24 20 17 15 12 9 6 4 6 10 12 13 16 17 18 21 22 20 18 18 18 18
19 18 15 13 9 5 4 6 8 10 12 13 13 19 19 22 21 18 17 16 17 19
18 15 13 9 5 3 5 7 8 10 12 14 15 17 21 21 19 17 15 17 17 18
15 12 8 5 2 3 5 6 8 10 12 14 16 18 19 19 17 13 17 19 20 21

GFSNIL_850_spd_012.txt.gz
Wind_Speed
36 34 37 40 43 41 36 34 32 26 22 15 10 7 6 8 10 11 12 12 13 13
34 37 34 40 42 40 36 34 27 26 21 16 10 7 7 9 10 11 13 14 14 15
40 37 32 38 41 39 35 30 29 26 20 15 10 7 8 9 11 12 14 15 16 16
41 33 31 37 39 37 33 29 28 24 18 12 9 8 9 11 13 14 15 15 17 19
34 33 35 39 38 33 30 28 25 20 15 12 9 9 10 11 14 16 16 16 18 20
34 38 40 38 34 30 28 26 22 17 13 9 8 9 11 13 15 15 16 18 20 22
40 40 37 34 32 29 25 22 18 14 10 8 8 11 13 14 15 16 17 19 20 22
40 36 36 34 28 26 23 19 13 10 7 7 10 13 14 15 16 17 19 19 20 21
39 38 35 30 28 24 19 14 10 7 6 9 13 13 14 15 17 18 19 20 19 21
34 33 30 28 23 20 15 10 6 5 7 11 14 14 15 16 18 19 19 18 19 22
25 27 24 22 19 14 10 7 4 5 9 12 13 15 15 17 19 19 18 17 17 18
27 26 21 16 14 11 7 4 3 9 9 10 12 16 18 19 19 19 18 14 15 17
22 19 17 14 11 7 2 4 5 6 8 10 12 14 18 20 21 19 17 16 17 17
20 18 14 10 6 2 2 2 4 5 8 11 13 16 19 21 19 16 18 22 21 21

GFSNIL_850_spd_015.txt.gz
Wind_Speed
45 43 42 43 45 41 44 43 38 33 30 27 23 15 11 8 6 6 8 9 10 10
46 41 39 42 39 42 45 42 37 34 31 27 21 17 11 8 7 8 9 11 11 12
43 36 36 38 40 43 44 41 38 35 32 25 22 15 11 9 8 9 11 13 13 13
37 34 35 31 36 42 45 42 38 34 28 24 19 15 11 8 9 10 12 13 14 15
33 36 34 33 38 41 42 38 36 29 26 23 19 13 10 9 11 12 14 14 15 16
35 35 36 37 39 38 39 36 31 27 25 21 15 12 10 10 12 13 14 15 16 18
36 37 39 38 36 36 36 31 30 27 21 16 13 11 10 11 12 13 14 16 17 19
36 37 37 36 35 35 32 31 27 24 19 14 10 9 10 12 13 14 14 16 17 19
36 35 34 35 34 29 29 26 23 18 14 11 8 9 11 12 13 14 16 17 18 19
35 35 34 31 29 27 24 22 18 14 10 8 8 10 10 11 13 16 17 19 19 19
33 30 27 25 22 19 18 14 11 9 7 5 8 9 11 13 15 17 18 19 18 16
23 27 26 24 22 21 15 13 9 6 4 5 8 10 13 15 16 17 17 15 14 15
26 24 24 22 19 18 14 8 5 4 4 5 7 11 14 17 18 17 13 12 16 16
24 22 21 20 15 11 8 6 3 2 4 8 10 11 14 16 15 14 16 19 20 19

GFSNIL_850_spd_018.txt.gz
Wind_Speed
41 44 45 46 41 43 43 47 45 39 37 35 32 28 24 19 14 11 9 8 9 10
38 45 45 45 41 40 43 45 42 38 39 36 33 29 25 19 13 13 10 9 10 12
34 37 41 43 40 38 40 39 41 39 40 37 34 30 24 19 18 15 11 10 12 13
36 39 39 39 38 36 33 41 39 41 41 37 34 28 23 20 16 13 12 12 13 14
35 39 38 39 36 28 34 38 39 43 40 37 31 26 24 20 16 12 12 13 15 16
33 35 37 35 30 30 33 35 39 41 38 33 28 26 23 18 13 12 13 14 16 17
32 32 33 30 29 31 31 33 37 37 33 28 23 21 16 12 11 12 14 16 18 18
33 32 32 30 31 30 30 31 35 32 26 21 21 16 14 12 12 13 14 17 18 18
31 32 31 31 31 30 30 32 29 26 23 19 15 15 13 13 12 13 16 15 17 18
32 31 30 27 25 25 28 27 24 17 16 15 15 14 13 12 13 13 14 16 18 19
27 26 24 25 27 27 24 21 20 20 13 13 14 13 13 11 11 12 15 17 18 18
21 27 25 22 22 22 25 23 17 14 12 12 12 11 10 11 11 14 15 14 13 15
23 25 26 25 22 19 14 11 9 9 8 9 8 9 10 14 15 16 15 13 15 18
24 22 21 20 16 15 13 11 9 8 7 6 7 8 11 13 16 17 17 18 20 19

GFSNIL_850_spd_021.txt.gz
Wind_Speed
26 29 34 37 43 44 44 43 41 45 44 41 37 35 32 30 27 24 19 16 13 12
20 26 33 35 38 41 45 44 41 43 46 41 38 37 35 32 29 24 20 16 12 13
27 27 26 32 40 40 42 44 43 43 44 40 37 37 35 32 28 24 20 16 15 17
31 30 31 30 35 41 40 41 39 38 39 38 39 38 34 30 26 21 17 16 14 16
33 30 31 33 35 39 38 36 35 34 37 41 39 36 33 30 25 19 17 18 17 16
33 27 31 33 33 34 36 34 32 33 39 39 37 34 30 25 20 14 16 16 16 17
25 21 29 30 31 32 33 33 31 33 36 36 33 29 25 21 15 16 15 16 17 20
20 22 26 27 29 31 32 31 31 29 32 32 28 24 19 12 11 15 14 17 19 21
17 21 23 27 30 31 29 25 24 27 31 27 23 21 14 12 13 14 17 19 21 20
19 23 28 31 29 26 23 22 26 25 23 21 17 14 12 10 13 18 17 19 20 22
22 24 25 24 22 21 22 23 22 21 17 16 14 11 14 11 9 14 16 19 20 20
13 17 20 22 23 22 21 21 20 17 12 6 8 6 7 9 12 14 15 17 16 17
21 23 23 23 22 23 21 17 13 11 8 6 5 6 9 11 12 14 14 15 16 18
21 22 22 22 19 16 14 12 10 7 5 5 7 7 8 9 13 16 18 18 20 19

GFSNIL_850_spd_024.txt.gz
Wind_Speed
20 28 30 33 35 37 41 43 45 44 42 41 42 41 41 37 35 32 30 28 24 22
15 18 23 28 30 33 34 37 42 44 44 41 43 42 42 39 37 33 31 23 22 16
15 16 18 21 26 31 33 34 36 40 42 42 43 43 41 39 35 34 31 30 25 21
20 21 22 25 25 29 31 33 34 38 40 42 41 40 40 39 36 32 28 25 21 17
24 25 28 28 26 28 31 31 31 34 36 37 36 38 40 38 34 30 25 21 20 15
30 27 30 30 26 27 27 26 27 29 31 34 35 39 38 34 30 26 23 19 15 12
29 28 26 27 23 24 23 22 25 28 31 33 36 37 37 33 27 22 18 14 10 12
17 14 15 17 20 22 20 22 26 29 30 27 23 25 28 25 22 19 15 14 11 12
6 8 10 14 20 20 21 24 25 23 22 25 25 26 20 19 16 13 13 13 14 18
5 6 10 13 14 16 18 18 18 18 23 24 23 20 15 13 10 9 10 13 14 16
2 6 9 9 11 12 14 15 19 22 20 18 16 13 13 11 7 6 10 14 15 14
9 12 13 14 16 16 16 20 21 19 17 15 12 10 8 5 5 6 10 13 13 14
12 15 16 16 17 19 20 20 18 17 13 10 6 2 3 3 4 7 10 13 14 14
18 19 19 19 20 20 18 15 13 10 8 6 4 2 1 6 9 13 14 15 17 17

GFSNIL_850_spd_027.txt.gz
Wind_Speed
22 28 31 32 34 33 34 36 40 41 41 45 42 41 42 44 43 41 39 36 33 32
15 17 18 20 24 27 28 29 33 36 41 43 43 43 42 44 46 43 40 36 34 34
13 13 14 15 17 18 22 26 28 31 35 39 45 43 42 44 45 42 40 36 34 32
16 14 14 16 18 19 20 22 23 25 29 33 39 42 41 41 39 39 37 35 33 30
19 20 20 20 21 22 24 24 24 23 23 26 31 35 37 36 38 39 37 34 29 27
20 19 21 24 27 29 26 25 22 19 20 22 24 28 31 32 33 32 30 27 23 20
19 20 23 24 25 25 21 19 18 20 19 21 23 27 29 29 29 28 24 22 22 18
12 15 17 18 18 15 14 16 16 16 17 19 21 23 26 30 29 23 20 16 15 14
6 7 7 8 9 9 12 13 13 14 15 17 19 21 24 25 23 20 17 18 18 15
7 4 1 3 5 7 8 9 11 12 14 18 20 20 18 15 14 15 13 11 11 12
6 4 3 4 6 7 7 8 11 14 16 17 16 14 16 16 13 10 9 8 7 9
7 7 7 7 9 12 13 15 17 17 17 15 17 13 11 9 8 5 2 4 7 9
11 11 11 13 16 19 19 21 19 19 15 12 10 8 5 3 4 1 3 5 7 8
18 19 18 18 18 18 19 17 15 12 10 6 6 7 5 4 4 5 5 6 8 9

GFSNIL_850_spd_030.txt.gz
Wind_Speed
17 22 26 29 32 32 30 32 33 35 35 38 40 45 45 44 45 49 47 44 47 43
17 17 15 17 21 24 26 28 27 30 31 32 36 41 45 47 47 47 51 50 47 46
18 18 18 18 16 15 16 17 20 23 25 27 29 34 40 43 44 45 47 49 45 44
21 20 19 18 17 17 17 18 18 19 20 22 25 28 32 37 39 40 42 45 40 28
18 20 21 21 22 21 21 21 20 20 20 20 22 23 25 29 32 34 35 36 35 36
19 19 19 20 21 23 24 25 23 21 19 18 20 21 23 24 28 29 30 28 26 25
15 16 16 17 18 21 24 22 23 22 19 17 19 20 20 22 21 21 22 24 24 22
8 7 7 10 19 17 16 14 14 15 13 14 13 16 16 17 17 19 20 19 16 15
7 6 4 6 6 7 8 8 10 9 8 8 8 10 10 13 16 17 15 15 15 15
7 7 6 4 2 1 2 3 4 3 4 6 6 8 12 14 14 14 13 13 14 13
8 8 7 6 5 5 6 7 7 8 9 9 11 12 13 12 12 10 10 9 7 6
12 11 10 9 10 10 9 11 13 14 12 11 12 9 9 8 7 6 3 1 2 3
15 15 15 15 15 15 15 16 15 14 11 8 7 6 5 3 3 2 1 2 4 5
19 19 18 16 15 14 14 13 11 9 8 6 7 8 6 3 2 2 3 4 5 6

GFSNIL_850_spd_033.txt.gz
Wind_Speed
15 15 17 19 23 25 32 31 25 31 32 31 32 36 38 38 43 46 44 46 51 49
14 12 13 12 14 16 18 22 22 25 25 27 28 29 31 38 41 42 43 44 49 49
14 15 16 16 13 14 15 15 19 19 21 24 26 26 27 34 37 38 38 39 41 46
14 15 16 16 15 12 13 16 18 18 18 19 21 22 24 28 32 34 37 37 37 37
13 13 13 11 14 15 18 20 20 19 18 18 18 19 20 22 26 29 32 32 32 32
12 13 12 12 14 15 17 19 18 15 21 20 21 19 20 20 21 23 25 25 25 26
11 11 10 10 11 12 13 14 14 20 30 29 24 19 18 18 17 17 17 17 16 14
9 9 9 8 6 7 8 12 15 15 13 12 12 12 12 12 10 10 9 8 8 7
9 10 8 7 7 6 6 6 7 5 5 6 7 6 4 3 3 5 6 7 10 9
8 7 6 6 5 4 3 3 3 3 3 4 4 3 4 6 7 8 8 8 8 7
7 7 8 7 7 7 7 7 7 6 5 5 7 6 5 5 5 4 6 6 5 4
10 9 10 10 11 11 10 11 10 9 8 7 8 5 4 3 2 1 3 3 3 5
14 14 15 15 15 15 14 13 11 10 9 8 6 5 2 1 2 1 1 1 3 4
17 17 17 16 15 14 12 10 8 7 7 7 6 6 4 5 4 3 3 4 5 8

GFSNIL_850_spd_036.txt.gz
Wind_Speed
17 15 14 14 14 23 25 26 23 22 25 26 24 26 29 33 38 40 42 45 46 46
13 14 16 17 15 11 13 18 22 24 24 22 22 22 22 26 31 35 39 42 42 44
10 11 14 15 14 14 13 15 19 19 17 18 20 20 19 20 23 27 34 38 39 40
9 9 9 8 9 11 13 15 19 17 16 16 15 15 16 18 19 22 27 31 33 34
11 12 12 9 11 14 16 17 17 16 14 12 12 14 16 16 17 18 21 26 29 30
11 12 11 12 14 14 14 14 14 14 15 14 15 17 18 20 20 21 20 22 23 24
8 9 9 9 8 8 8 9 10 11 13 15 15 16 19 21 15 17 17 17 17 14
5 7 7 7 5 4 4 6 8 11 10 10 9 11 12 12 12 10 8 6 5 5
7 8 8 8 7 8 6 5 4 5 6 7 7 8 7 4 3 1 1 2 4 4
6 7 7 7 6 6 7 6 6 7 8 9 9 10 9 8 6 4 3 3 3 3
6 6 7 7 7 8 8 8 9 11 11 9 10 10 9 7 4 1 1 2 3 4
8 9 10 10 12 12 11 12 13 13 11 10 9 7 6 4 2 2 2 3 3 3
13 13 13 15 15 15 13 13 12 10 9 8 6 5 4 4 4 3 2 3 4 5
15 15 15 14 13 12 11 10 9 9 9 6 6 6 6 7 6 6 6 6 7 8

GFSNIL_850_spd_039.txt.gz
Wind_Speed
17 18 19 19 17 16 17 24 24 22 22 23 25 27 28 26 26 30 33 31 36 41
14 15 16 18 18 18 14 12 15 20 22 24 23 25 19 21 23 23 25 28 29 32
12 12 13 14 15 15 16 15 14 18 18 16 15 17 17 18 19 19 20 23 24 27
12 12 12 12 13 13 13 14 14 16 16 15 12 10 9 9 10 12 13 14 16 19
11 12 13 13 14 14 15 16 17 17 17 15 14 12 11 12 14 14 14 14 14 19
10 10 11 12 13 13 12 12 12 12 12 12 13 16 16 17 16 15 15 16 18 22
5 6 7 6 4 4 6 7 8 8 8 10 12 13 14 13 14 12 15 16 15 14
2 4 5 7 7 4 1 2 2 5 8 10 10 10 10 11 11 12 13 11 9 7
5 5 6 6 6 6 7 6 6 5 7 6 7 8 7 4 2 3 2 2 1 1
5 5 6 5 6 6 5 5 5 6 6 6 7 10 10 9 7 6 5 5 4 3
6 6 7 6 6 6 6 7 9 9 8 8 9 8 10 10 8 5 3 2 3 4
7 8 9 8 10 10 10 10 11 11 9 9 8 7 7 6 5 5 4 4 4 5
10 11 12 13 13 12 10 10 10 8 8 9 8 7 7 6 6 6 6 6 6 6
14 14 13 11 10 9 9 9 7 7 7 6 7 8 8 9 8 8 8 9 9 9

GFSNIL_850_spd_042.txt.gz
Wind_Speed
20 21 22 23 23 22 21 19 16 20 23 18 20 22 23 26 26 23 25 27 27 26
16 17 18 19 21 21 20 17 15 14 16 19 22 24 26 25 22 20 20 23 25 25
13 14 14 16 16 17 16 15 15 16 17 18 17 16 16 17 14 12 12 14 16 19
12 13 14 14 14 13 12 12 13 15 16 16 15 14 14 13 12 12 12 12 13 15
12 12 12 14 14 14 14 13 14 15 16 16 15 14 14 14 15 17 17 17 17 17
10 10 9 10 13 14 13 11 10 10 10 10 11 12 13 15 16 16 15 15 16 17
5 4 3 3 3 2 4 3 4 5 5 7 9 9 9 10 10 9 10 11 12 12
2 1 2 3 4 3 2 2 1 2 2 2 2 3 4 5 6 6 9 10 10 8
4 4 5 5 5 5 5 5 3 3 2 2 2 4 5 3 2 2 3 3 3 4
6 6 6 6 5 4 5 4 4 3 4 4 5 5 6 7 5 5 5 4 4 4
9 8 7 7 7 7 7 6 6 6 7 7 6 6 7 6 6 6 5 5 5 6
7 8 8 8 9 9 8 8 8 8 7 6 7 8 8 8 8 7 6 6 6 7
10 10 10 11 11 10 8 7 7 6 6 7 7 6 7 8 8 9 9 9 9 10
12 13 13 11 9 7 6 5 4 5 5 6 7 8 9 10 9 9 9 9 9 10

GFSNIL_850_spd_045.txt.gz
Wind_Speed
21 21 22 23 24 24 23 21 20 18 17 17 17 16 17 18 22 23 23 21 19 19
18 18 19 19 19 19 19 18 17 16 16 17 16 17 19 20 23 22 21 19 18 18
16 15 15 15 14 14 14 13 13 14 15 17 16 16 16 17 17 17 17 15 13 13
15 14 14 14 14 14 13 12 12 12 14 15 15 15 15 14 15 15 15 15 15 16
15 14 12 13 14 15 14 13 13 13 14 14 13 13 13 13 14 15 17 19 19 19
12 11 10 11 12 14 15 13 12 11 9 9 8 9 10 11 11 12 13 12 13 14
8 7 6 5 5 6 5 5 5 5 5 5 6 6 7 7 7 6 5 5 7 9
4 3 2 2 1 2 3 5 4 3 2 1 1 2 4 4 4 4 4 3 5 6
5 4 3 4 1 3 4 5 4 4 1 1 1 2 3 1 2 2 3 4 5 5
6 6 6 5 4 3 4 3 2 2 1 1 3 4 4 4 4 5 5 5 6 6
10 10 10 8 6 5 4 3 3 4 5 5 6 7 7 8 7 7 7 7 8 8
10 10 9 9 7 6 5 6 7 6 6 7 6 7 8 8 9 9 9 9 9 9
10 9 9 8 8 9 8 7 7 6 5 5 6 6 7 8 8 9 9 10 11 12
11 11 11 11 9 8 7 5 3 2 4 6 7 9 9 9 9 9 9 10 10 11

GFSNIL_850_spd_048.txt.gz
Wind_Speed
17 18 18 19 20 21 21 21 20 19 18 17 16 15 14 17 18 17 21 22 24 22
16 16 16 16 16 16 16 16 15 15 15 15 14 13 14 16 20 22 22 22 19 17
16 16 15 15 15 14 14 12 11 12 13 15 15 15 14 13 13 14 14 14 13 13
18 17 16 15 14 14 13 12 12 12 13 13 14 14 13 12 12 11 11 11 11 13
18 17 15 14 13 14 14 14 14 13 14 13 13 12 12 11 11 12 12 13 13 13
15 14 13 12 12 13 15 15 13 12 11 10 9 9 9 10 10 10 10 9 8 8
8 8 8 8 9 8 8 6 7 7 7 7 7 7 8 7 7 7 6 5 5 5
4 5 6 5 5 5 5 6 6 5 4 4 2 4 3 3 3 3 3 4 4 4
6 6 5 5 5 3 4 6 5 5 4 3 1 0 1 1 1 1 2 3 4 4
8 8 7 6 5 2 3 4 5 5 4 3 3 5 5 5 5 4 4 4 5 5
10 9 8 8 5 4 5 4 4 4 6 5 5 6 7 6 5 5 6 5 6 7
11 10 8 7 6 6 6 5 6 7 6 5 5 6 6 7 8 9 9 8 8 9
10 9 8 8 8 7 8 6 6 5 5 4 5 5 6 8 9 9 8 9 9 11
10 11 10 10 10 9 7 6 4 2 3 4 5 6 7 8 9 10 9 9 10 10

GFSNIL_850_spd_051.txt.gz
Wind_Speed
15 16 17 18 19 20 20 20 20 18 18 17 16 14 13 13 13 15 19 20 19 23
15 15 16 16 16 16 16 15 15 14 14 14 13 13 12 12 14 16 18 20 22 25
16 17 17 16 16 15 14 13 12 12 12 12 13 13 13 12 13 15 16 17 17 15
18 18 18 17 16 15 14 13 13 13 13 12 13 12 13 12 12 12 12 12 11 11
18 18 17 16 15 15 15 15 14 14 13 13 13 12 11 11 11 10 10 11 11 12
18 16 14 14 14 13 14 15 15 13 12 11 11 10 9 8 9 9 9 9 9 9
13 10 9 9 9 9 9 8 8 9 8 8 8 7 7 6 7 7 7 7 7 6
8 6 7 7 7 7 6 6 7 7 7 6 5 4 4 4 4 4 5 5 5 5
8 8 8 7 6 5 6 7 7 6 6 6 4 3 3 3 2 2 2 3 3 3
10 8 9 8 8 5 7 8 8 8 7 5 5 4 4 4 2 1 2 2 3 4
12 10 10 10 7 7 8 8 8 8 8 7 6 5 5 3 1 1 2 3 4 5
13 13 13 11 8 9 9 8 9 10 8 7 5 4 4 2 3 2 3 4 5 6
13 14 12 10 10 10 9 10 10 9 7 5 4 3 2 3 3 4 5 5 6 8
13 12 12 12 12 11 11 12 10 8 6 3 2 2 3 4 5 5 6 6 7 8

GFSNIL_850_spd_054.txt.gz
Wind_Speed
17 18 18 18 19 21 22 22 21 20 20 20 19 18 17 16 16 16 16 18 20 19
16 16 17 18 19 20 21 20 19 18 17 16 15 15 14 13 12 13 14 15 16 17
17 18 19 20 20 21 20 19 18 16 15 14 14 14 14 14 14 15 16 18 19 20
18 20 20 20 21 21 20 19 18 16 15 14 13 13 13 14 13 14 14 14 14 14
20 21 21 21 20 20 19 19 18 17 16 15 15 14 14 14 13 13 12 12 12 13
21 21 20 19 18 18 17 17 18 18 17 16 15 14 13 12 12 12 11 11 11 11
20 18 16 14 13 13 15 16 15 15 16 15 14 12 11 10 11 11 10 10 9 9
17 14 12 10 10 12 12 11 10 10 11 10 11 10 9 8 8 8 7 7 6 7
14 12 10 10 10 9 10 9 9 10 10 10 9 9 8 6 5 6 5 4 5 6
12 11 11 10 10 9 8 9 9 10 10 8 7 6 6 6 5 4 3 4 5 7
14 14 12 12 12 10 10 10 10 10 8 8 7 6 4 4 4 4 5 5 6 6
15 16 15 14 13 11 11 11 10 10 10 9 7 5 4 5 4 3 4 4 5 6
15 16 15 14 12 12 12 11 13 12 11 8 6 5 5 4 2 2 3 4 6 6
16 16 15 14 14 14 14 14 14 13 10 8 7 7 5 2 2 3 4 5 6 8

GFSNIL_850_spd_057.txt.gz
Wind_Speed
16 16 18 19 20 21 22 22 23 23 23 24 24 23 22 20 19 18 16 15 18 20
16 17 18 19 19 20 22 23 23 22 21 20 19 19 18 17 16 14 13 13 15 17
16 16 17 19 20 22 23 24 22 21 20 19 18 16 16 17 17 16 15 14 16 17
16 17 19 21 22 23 24 23 22 21 20 19 17 15 16 16 16 15 15 15 15 14
17 19 21 22 23 23 22 23 21 21 20 19 17 16 16 16 15 14 13 12 12 12
18 21 21 22 22 22 20 20 19 19 19 19 18 17 17 16 14 13 13 12 12 11
20 20 19 18 18 17 16 16 17 17 19 19 19 17 15 14 14 13 12 12 12 11
20 19 19 17 16 15 15 15 16 16 15 14 15 15 13 12 12 12 11 10 10 8
20 19 17 14 13 14 14 13 13 12 11 11 11 11 11 9 9 9 9 8 7 7
18 17 15 13 12 13 12 12 10 9 10 10 8 8 9 9 7 6 6 6 6 6
18 15 15 14 13 13 12 11 10 10 9 9 8 8 7 7 6 7 6 6 5 6
16 15 16 15 14 14 12 12 11 11 9 9 8 7 6 5 6 5 5 6 7 7
15 16 16 15 14 13 13 12 12 11 11 10 8 7 5 5 5 5 6 7 7 7
16 15 15 15 15 14 14 14 13 12 11 9 9 8 6 5 6 6 6 6 7 8

GFSNIL_850_spd_060.txt.gz
Wind_Speed
19 18 18 17 16 19 21 22 22 22 22 21 22 21 23 22 22 19 18 17 16 17
20 16 16 15 18 19 20 21 22 22 23 22 21 20 20 19 19 16 14 13 14 13
16 15 16 16 17 20 22 24 24 23 23 22 21 19 18 16 16 16 15 14 15 14
20 17 14 16 19 22 24 25 24 24 22 21 19 18 17 16 16 15 16 16 18 19
19 18 22 22 25 25 24 25 23 21 20 20 19 18 17 18 16 16 15 15 14 13
18 18 18 19 22 24 24 23 21 19 18 18 18 18 18 19 17 16 15 15 14 13
17 17 19 21 22 23 23 20 18 17 17 18 19 18 18 17 17 16 15 14 14 14
18 19 19 21 21 20 19 16 15 14 16 16 16 16 16 15 16 15 15 13 12 12
20 20 20 20 18 16 15 13 12 14 14 14 13 11 11 11 12 12 12 10 10 10
19 20 19 18 15 13 12 11 12 12 12 11 10 10 10 12 10 9 9 9 8 6
20 20 19 16 14 13 11 11 12 11 10 11 8 7 8 7 7 7 7 7 7 6
20 20 18 15 14 13 13 12 11 12 12 9 7 7 7 7 7 7 6 8 6 6
20 19 16 15 15 14 13 12 12 13 11 9 8 6 6 6 7 7 7 7 6 7
19 17 14 14 14 14 13 13 13 13 11 10 9 8 7 7 7 6 7 6 6 6

GFSNIL_850_spd_063.txt.gz
Wind_Speed
23 21 21 19 17 18 21 18 19 19 21 22 23 23 22 23 22 21 21 19 17 17
19 18 18 16 13 15 17 17 17 19 21 22 23 23 23 23 21 21 19 15 14 14
11 14 15 14 15 17 16 17 19 21 23 23 23 23 23 23 21 19 17 15 14 15
19 23 19 15 16 17 19 21 23 24 26 24 24 22 22 21 20 18 18 18 18 18
23 23 23 24 31 28 25 24 25 27 28 26 24 22 22 22 21 19 20 19 18 19
22 20 19 20 20 19 21 24 25 25 24 22 20 20 20 21 21 20 19 18 17 16
21 20 18 17 17 19 21 22 22 21 20 18 18 19 20 20 21 19 18 16 16 15
20 18 18 18 19 20 21 21 20 19 19 17 17 18 19 19 20 20 18 17 17 16
21 20 20 20 20 20 21 20 18 16 16 16 16 16 16 15 17 18 16 16 16 15
23 22 21 21 21 21 19 17 15 14 14 14 13 13 13 14 14 13 11 11 12 12
24 23 22 21 21 19 17 15 14 13 13 12 12 13 12 10 11 10 9 9 9 9
25 23 21 21 20 18 16 15 13 12 13 12 13 10 8 8 9 9 8 8 9 9
24 22 21 20 19 17 15 14 12 13 13 14 10 9 8 7 7 8 9 9 10 9
24 22 21 19 18 15 15 14 14 14 14 13 11 11 9 8 8 8 8 9 9 8

GFSNIL_850_spd_066.txt.gz
Wind_Speed
29 29 27 27 26 25 24 23 20 18 18 19 22 23 24 24 25 24 24 24 23 23
25 28 29 27 22 18 18 18 15 17 18 20 22 26 26 26 25 25 24 23 23 21
18 18 17 15 13 16 19 18 19 18 19 22 23 24 25 26 25 24 23 21 18 17
19 19 18 19 23 23 21 21 20 23 23 25 24 25 25 25 25 23 21 19 19 18
21 21 22 21 21 21 20 24 21 24 23 23 23 24 23 22 22 22 20 19 20 20
23 23 22 22 22 22 21 18 19 22 23 23 23 22 23 23 21 21 21 19 21 20
24 23 24 23 21 18 18 19 21 22 23 23 22 21 21 21 21 21 21 18 19 19
22 23 22 20 19 19 20 20 21 23 22 21 20 19 19 19 17 17 19 18 19 19
21 21 21 21 21 20 21 22 22 22 21 20 19 18 18 17 16 16 18 19 18 19
22 23 23 22 22 22 21 21 21 20 20 17 16 15 15 14 13 13 14 14 14 14
25 25 25 24 23 22 21 21 20 19 17 15 13 14 13 13 13 12 12 11 11 11
26 27 26 24 22 22 22 21 20 19 16 12 12 13 14 12 11 11 11 11 11 9
24 25 26 23 22 22 22 20 18 15 13 13 13 14 11 8 8 9 9 10 9 8
23 23 23 23 23 21 21 18 15 14 14 14 14 13 12 10 9 9 10 10 9 9

GFSNIL_850_spd_069.txt.gz
Wind_Speed
27 29 29 30 31 23 26 22 20 20 21 17 19 22 21 22 22 23 24 23 23 23
25 25 27 27 24 20 26 24 21 14 15 18 20 20 24 24 24 24 25 24 24 23
20 20 20 22 22 20 15 12 15 17 24 24 23 24 24 26 26 27 25 25 24 23
18 17 16 15 16 15 16 22 28 25 21 22 24 24 26 25 25 26 26 26 24 21
18 18 17 19 20 20 23 23 21 20 22 24 23 23 25 26 24 23 24 23 20 18
18 20 20 20 21 21 20 20 21 22 21 21 21 22 24 23 22 21 21 22 20 19
19 20 22 22 22 23 23 22 20 20 20 20 22 23 22 22 21 20 20 21 19 19
17 19 21 22 22 21 21 20 19 19 20 21 21 21 20 20 20 19 17 17 17 17
18 19 21 21 21 20 20 19 19 20 20 21 20 19 18 18 18 16 15 14 15 16
19 20 20 20 21 21 21 21 20 20 21 20 18 17 16 16 15 14 13 13 13 14
22 22 22 22 23 23 23 21 21 21 21 19 16 15 14 14 14 13 12 13 12 11
24 23 24 25 25 24 23 22 21 21 21 18 15 14 14 15 16 13 13 13 12 12
22 25 25 25 24 24 24 23 22 21 20 16 14 13 15 15 12 11 12 12 11 9
18 22 22 22 23 24 23 23 22 20 16 14 13 14 14 13 11 10 10 10 9 9

GFSNIL_850_spd_072.txt.gz
Wind_Speed
21 21 21 22 23 24 22 21 23 19 8 12 14 19 18 19 18 19 20 21 22 21
16 18 19 21 23 23 23 19 15 12 13 19 19 20 20 18 18 19 23 23 23 23
14 14 15 16 17 20 19 16 16 18 19 19 20 20 20 18 20 24 23 23 23 22
16 16 15 14 12 13 15 17 19 18 20 20 19 19 18 22 24 23 23 23 23 21
15 14 14 12 11 11 14 15 15 17 19 18 17 19 21 22 22 22 21 21 22 21
14 14 14 13 14 15 17 19 17 16 16 17 19 20 21 21 21 20 20 20 20 18
15 15 15 16 17 17 18 18 18 18 19 19 19 20 20 20 19 20 20 20 19 20
15 15 17 19 20 21 22 21 22 20 19 19 20 20 20 20 20 19 19 17 15 15
20 18 17 19 20 20 21 21 20 19 19 19 19 20 19 18 17 17 17 12 13 12
20 21 20 19 20 20 20 20 19 19 19 18 18 18 18 17 17 16 13 11 11 11
21 20 22 21 21 21 21 20 20 19 19 18 18 19 18 16 16 13 12 12 11 11
19 20 23 23 22 22 22 21 20 19 19 20 19 19 17 14 14 15 15 13 12 12
18 19 22 24 22 21 21 22 21 20 19 20 19 16 14 13 15 15 13 13 14 14
17 16 17 21 22 20 20 21 21 20 20 20 15 13 13 13 14 12 11 12 12 10

GFSNIL_850_spd_075.txt.gz
Wind_Speed
10 12 13 13 13 15 19 19 18 18 22 17 10 11 9 11 13 18 20 18 18 19
8 9 11 12 12 14 16 18 19 17 18 19 20 15 13 17 20 19 17 18 20 21
8 9 10 11 12 13 13 16 17 16 15 15 16 19 20 18 18 18 18 21 21 21
13 13 13 12 11 11 11 15 22 20 21 21 18 19 17 18 17 19 19 21 23 22
11 12 13 12 10 9 9 13 19 20 19 16 17 18 19 18 18 18 19 20 22 21
14 12 11 13 12 12 12 11 13 14 16 19 19 17 17 17 16 18 20 20 20 19
15 15 13 13 14 15 14 15 17 17 17 17 18 17 16 16 17 19 19 18 18 18
17 18 18 16 16 18 17 17 18 18 18 18 19 18 17 17 17 18 18 17 17 16
20 19 18 20 19 20 20 21 22 22 22 21 20 19 18 18 18 17 16 15 14 12
20 20 20 21 21 22 22 22 22 22 21 20 18 17 17 18 17 16 17 16 13 10
22 23 20 22 23 23 23 23 22 21 20 19 18 18 18 19 19 17 16 14 10 10
20 20 20 21 23 25 24 23 22 21 21 20 19 18 18 19 18 16 15 14 12 12
22 20 19 19 22 25 24 22 22 22 21 20 20 20 19 21 19 17 16 15 14 15
21 21 19 18 20 23 23 22 23 22 22 21 22 21 19 20 19 17 15 15 15 16

GFSNIL_850_spd_078.txt.gz
Wind_Speed
12 15 18 20 20 21 26 24 25 25 25 22 21 17 19 19 14 13 13 14 17 19
6 8 10 12 14 17 20 22 25 26 24 21 21 20 20 22 22 21 20 18 20 19
5 5 8 9 11 13 15 18 22 25 24 22 21 23 23 20 18 18 17 19 20 21
6 8 10 12 13 14 14 16 19 21 26 24 21 20 20 19 18 18 20 20 20 21
9 10 10 11 12 14 14 14 15 22 29 24 25 23 22 21 20 20 20 20 20 19
11 12 13 13 14 13 13 14 15 21 25 26 23 21 20 20 20 20 20 20 20 21
13 14 14 15 15 16 15 15 15 17 20 20 21 21 22 21 20 21 21 20 20 21
17 17 16 17 18 17 18 18 19 21 23 22 22 22 23 22 22 20 20 19 19 19
18 18 18 18 19 20 19 21 24 23 24 24 24 24 23 21 20 20 20 20 20 20
19 19 19 19 19 21 23 23 24 26 26 27 27 25 24 22 22 22 21 21 20 19
20 19 19 20 19 20 24 26 26 26 25 25 26 25 24 23 23 21 19 19 18 18
20 20 20 21 20 20 23 27 27 26 25 25 25 25 24 23 22 21 20 20 19 17
18 20 20 20 21 21 23 26 29 26 25 25 25 25 25 24 23 23 22 20 19 18
17 19 19 19 19 20 21 24 28 26 26 27 26 27 27 26 25 23 21 21 21 20

GFSNIL_850_spd_081.txt.gz
Wind_Speed
16 19 20 21 23 24 25 26 24 24 26 24 23 20 24 26 25 26 24 26 26 25
9 11 14 17 21 23 25 28 30 27 30 30 27 24 22 26 28 22 20 22 20 19
4 7 9 10 14 16 18 21 23 25 25 26 26 23 27 26 23 24 23 25 23 20
3 7 9 11 13 15 16 17 19 20 21 22 26 27 28 25 25 26 24 23 21 20
6 7 9 10 12 13 14 15 17 18 18 24 29 30 26 25 23 24 24 22 22 22
9 10 11 12 13 13 14 14 15 15 18 23 29 24 24 23 25 25 23 23 22 22
12 13 14 14 16 16 16 16 15 15 17 22 26 27 28 27 24 24 24 24 24 24
16 15 15 16 16 17 18 18 18 18 18 20 21 21 23 23 24 25 24 24 24 23
16 17 18 19 18 17 18 19 21 21 21 23 24 25 24 23 23 24 24 24 24 24
17 16 16 17 17 17 17 20 22 23 24 25 25 26 24 25 26 26 26 26 23 23
17 16 16 17 18 18 17 19 21 24 25 26 27 27 25 26 26 27 26 24 22 23
20 19 18 19 20 19 20 19 21 23 26 28 28 27 25 26 26 27 26 24 24 24
21 22 22 20 20 20 20 21 20 23 25 28 27 27 25 26 27 27 27 25 25 26
22 22 23 24 23 22 22 22 20 21 23 27 29 28 27 27 28 27 27 25 26 26

GFSNIL_850_spd_084.txt.gz
Wind_Speed
16 16 21 19 19 22 23 23 20 21 19 17 22 17 18 19 25 24 14 15 14 22
4 9 15 17 17 20 21 25 28 28 26 26 28 29 26 28 28 27 23 21 21 24
1 2 5 9 12 16 20 22 25 26 26 25 26 29 31 28 25 22 26 24 19 19
2 3 5 8 10 12 13 16 18 20 21 23 22 22 23 24 23 26 25 21 20 22
6 7 8 9 10 12 11 16 17 18 20 21 20 19 23 28 27 25 23 24 24 22
8 9 9 10 11 13 12 16 17 15 16 17 17 20 24 26 27 23 25 24 22 21
10 12 12 12 13 13 12 15 16 17 16 16 17 20 23 28 25 23 24 25 24 22
12 12 12 13 14 14 15 15 15 16 18 18 18 20 24 25 29 27 26 24 24 24
12 12 13 15 15 14 14 14 17 17 17 20 20 20 20 20 20 20 23 24 24 24
14 14 14 13 14 16 17 16 16 17 19 20 22 21 22 23 23 24 24 24 24 25
15 15 16 16 16 16 16 17 17 16 18 21 23 24 22 23 25 26 26 26 26 26
21 21 20 19 19 18 18 17 18 18 17 20 22 24 24 25 25 28 28 28 28 27
21 21 21 22 23 22 20 20 18 19 18 18 20 23 25 26 26 28 29 30 28 26
22 22 22 22 22 23 23 23 23 22 20 21 18 19 25 27 28 29 29 30 30 26

GFSNIL_850_spd_087.txt.gz
Wind_Speed
10 13 11 15 13 17 23 22 17 16 16 21 21 20 20 25 22 22 21 22 19 18
2 11 16 21 20 23 23 21 21 24 25 23 24 23 25 25 22 21 23 23 22 20
3 2 2 5 11 14 14 18 19 20 22 23 24 26 27 28 29 32 28 25 25 26
3 2 3 5 8 9 10 13 15 17 18 20 22 22 22 22 21 23 23 20 26 27
5 5 5 6 7 9 11 12 14 16 18 20 22 23 21 20 19 23 22 21 26 22
8 8 9 10 10 12 14 14 15 16 16 17 18 19 18 19 18 21 26 19 26 19
11 13 13 13 13 14 15 15 16 17 17 16 16 17 17 19 20 21 24 22 22 22
11 12 14 14 14 14 15 16 17 18 18 18 17 15 15 18 21 24 29 24 23 24
12 11 12 14 15 15 15 15 16 17 18 19 19 17 16 16 18 20 23 23 24 23
13 13 13 13 14 15 16 15 14 15 16 18 19 18 19 18 19 20 20 21 21 23
15 15 16 18 18 19 19 19 17 16 16 17 18 19 20 21 21 22 23 23 23 23
18 19 19 19 19 20 21 22 23 21 19 18 17 17 21 21 22 24 24 24 25 26
19 20 21 20 21 21 21 22 21 21 20 20 21 17 16 19 24 25 24 26 27 28
25 23 22 22 21 21 20 21 21 21 20 20 18 17 18 18 22 26 27 26 28 29

GFSNIL_850_spd_090.txt.gz
Wind_Speed
3 3 6 8 9 7 13 15 16 18 17 18 27 34 31 29 30 27 27 25 26 30
3 9 6 3 4 12 11 13 16 20 19 25 20 21 23 23 25 23 23 24 24 25
6 5 3 9 14 16 16 14 20 19 17 15 18 20 24 25 26 27 28 29 29 28
8 6 4 0 3 5 8 11 14 14 14 14 15 18 21 23 23 25 25 25 27 31
9 8 7 6 6 7 8 10 11 13 14 14 15 17 18 19 20 22 23 23 24 26
10 9 9 9 9 9 10 11 13 15 15 15 15 16 15 16 18 19 19 20 22 22
11 11 13 13 12 12 13 14 14 15 16 16 17 17 17 16 15 16 19 20 20 24
12 13 12 12 14 14 15 16 16 17 17 17 18 18 18 18 18 20 19 21 22 23
13 14 14 15 16 17 17 16 17 17 18 18 18 19 20 20 19 19 21 22 22 24
16 18 19 19 19 20 21 22 21 20 19 18 18 20 21 20 22 21 20 21 23 21
17 19 20 22 23 24 25 24 24 24 22 22 20 20 20 22 22 24 23 21 22 23
20 20 22 24 24 23 25 24 24 24 24 24 22 20 20 19 21 23 24 24 23 24
23 24 24 24 25 25 24 25 25 26 24 24 24 21 20 18 20 22 23 25 25 25
24 26 25 25 25 25 25 25 25 25 24 24 22 21 21 20 18 18 21 24 26 25

GFSNIL_850_spd_093.txt.gz
Wind_Speed
11 4 4 5 9 9 3 7 9 11 12 14 16 23 27 27 28 25 29 30 32 34
6 3 5 4 4 4 2 5 11 14 15 16 17 22 25 30 33 33 33 36 33 35
10 9 5 2 4 6 7 7 6 8 9 14 14 13 24 25 26 28 30 31 32 30
9 7 5 4 4 4 6 7 7 9 12 18 16 17 17 17 24 22 24 25 29 30
8 8 7 7 7 6 6 7 8 9 11 12 14 14 16 20 25 27 27 26 28 27
12 12 10 9 9 11 12 13 13 13 14 15 15 16 16 18 20 21 23 22 24 26
12 12 13 13 13 12 11 10 10 13 15 17 17 17 17 18 19 20 21 21 23 25
13 14 15 15 15 15 15 15 15 14 14 15 16 18 20 21 22 21 21 22 25 26
14 15 17 17 17 18 18 17 18 18 18 18 17 18 20 21 21 22 23 24 25 24
17 18 19 20 21 22 23 23 24 24 23 21 18 19 22 22 22 23 23 23 23 23
20 21 22 23 24 25 25 25 25 26 25 26 24 23 23 23 24 24 23 24 24 25
21 24 25 27 28 29 30 30 30 28 28 28 27 26 26 25 25 24 23 22 21 24
24 26 29 30 31 30 30 31 31 31 28 28 28 27 26 26 26 25 22 23 21 22
25 26 26 26 27 28 30 31 32 32 30 28 26 27 25 23 23 23 23 23 23 20

GFSNIL_850_spd_096.txt.gz
Wind_Speed
11 11 7 6 10 13 8 6 8 17 18 19 15 19 19 26 32 31 30 35 38 31
9 7 8 8 7 7 7 9 4 9 8 12 14 16 24 34 32 32 33 28 26 27
12 11 11 8 6 5 4 2 3 3 5 8 13 12 14 21 25 25 27 30 26 28
11 10 11 11 11 11 11 9 7 7 8 9 10 13 13 17 13 15 19 20 21 26
11 11 11 11 11 10 10 9 9 9 9 10 11 12 14 17 18 21 23 26 26 27
12 12 13 13 14 14 13 12 11 10 9 10 12 14 15 16 18 20 23 23 25 26
14 15 15 14 12 12 13 14 15 16 16 15 13 13 14 16 18 20 22 22 22 25
13 13 14 15 17 17 17 16 16 15 14 16 18 19 21 21 20 20 21 22 23 25
14 15 16 17 18 19 20 21 21 21 21 21 21 21 21 21 23 24 25 26 24 22
16 17 19 20 21 23 23 24 24 25 27 27 26 26 25 26 26 27 26 25 27 27
19 20 21 23 24 25 25 24 25 24 24 24 24 25 26 26 26 27 29 28 25 25
24 27 28 30 30 30 30 30 30 28 26 25 24 24 25 27 28 26 25 25 28 25
26 27 27 28 28 28 28 28 28 28 27 27 26 23 24 25 26 28 29 27 24 23
26 27 27 27 27 27 28 28 29 29 27 25 24 24 22 23 25 24 27 29 29 26

GFSNIL_850_spd_099.txt.gz
Wind_Speed
10 7 6 8 8 12 12 12 9 6 7 3 8 19 25 17 16 23 33 35 38 37
14 15 13 11 10 10 10 6 8 7 1 1 2 5 7 12 15 24 35 33 37 36
11 11 12 11 11 9 7 5 6 8 6 5 7 9 9 12 12 11 29 38 36 36
13 12 11 12 13 13 12 11 9 6 6 7 8 9 12 10 12 13 11 6 18 24
12 12 12 13 13 12 12 11 11 9 9 9 10 11 9 9 12 15 18 21 19 17
9 11 13 14 14 14 14 14 12 12 11 11 10 10 11 12 13 15 16 17 19 21
12 13 13 13 14 15 16 16 17 18 18 18 17 16 15 14 15 15 16 18 19 21
13 15 16 17 19 19 20 21 20 19 18 19 20 21 23 23 23 22 21 19 19 21
17 18 19 20 20 22 22 22 22 22 22 22 22 21 21 21 22 24 26 27 26 23
18 19 20 21 23 23 22 22 22 21 22 22 22 22 21 21 22 23 23 24 25 26
18 19 22 24 25 26 27 26 26 25 24 24 21 21 21 22 23 23 22 22 23 25
23 24 25 25 26 26 26 26 26 25 25 25 24 23 23 23 24 24 24 24 24 24
24 25 26 26 25 26 26 26 26 26 25 24 24 22 22 21 23 25 25 26 25 26
24 24 24 26 26 26 27 28 28 28 27 26 24 23 21 20 21 22 23 25 26 25

GFSNIL_850_spd_102.txt.gz
Wind_Speed
5 3 9 5 5 6 8 8 10 9 8 3 2 6 9 14 18 31 31 32 36 32
15 14 14 14 11 10 8 7 7 11 14 11 6 2 5 7 10 15 18 25 35 34
8 11 12 10 11 11 12 11 10 7 10 13 12 10 7 3 3 9 9 12 23 30
9 7 7 8 11 12 13 13 12 11 11 11 12 13 14 14 12 11 11 12 13 5
10 10 10 11 13 13 14 15 15 15 14 13 13 13 12 12 12 12 13 16 19 19
12 13 14 15 15 16 17 18 18 17 17 18 18 18 18 17 16 15 15 15 16 18
11 12 13 15 16 16 17 17 18 19 19 20 19 19 18 17 17 17 18 18 17 17
13 14 16 18 20 21 22 23 23 23 21 21 21 21 21 21 22 22 21 19 18 18
16 17 18 18 18 19 19 18 18 18 17 17 18 19 20 21 22 22 23 24 24 23
17 18 18 19 20 20 20 20 20 20 20 19 18 18 18 19 19 20 20 21 22 24
19 19 20 21 21 21 22 23 24 24 24 24 23 21 21 20 20 20 19 20 21 20
19 20 21 21 22 22 23 24 24 24 25 25 25 23 21 21 22 22 22 20 19 20
21 21 22 23 24 24 25 25 26 27 26 26 26 24 23 22 22 20 18 18 18 19
20 21 21 22 23 24 25 26 26 26 26 25 24 24 23 22 22 21 21 22 21 19

GFSNIL_850_spd_105.txt.gz
Wind_Speed
11 8 6 5 11 7 10 7 8 11 14 19 17 18 8 5 13 23 26 31 35 37
15 15 13 13 9 8 9 11 11 12 13 19 19 21 21 17 12 0 11 17 22 30
8 9 11 10 11 12 13 13 14 14 15 15 17 19 21 20 21 18 13 4 6 6
6 7 6 7 8 11 12 13 14 15 15 15 15 15 16 19 21 22 19 18 16 15
8 8 9 10 11 12 13 15 16 16 17 17 17 16 15 14 13 14 16 16 17 18
10 10 11 12 13 15 16 17 18 18 18 19 18 18 17 17 17 16 16 16 16 16
11 12 13 14 16 17 18 19 19 19 19 19 19 20 19 20 20 20 19 18 18 18
13 15 18 20 21 22 22 22 22 22 21 21 20 20 23 23 22 20 20 19 19 19
16 18 20 21 22 22 21 19 18 18 17 16 16 18 18 20 21 21 22 23 22 21
18 19 20 21 20 19 18 17 17 17 17 17 17 18 19 18 19 19 18 19 20 21
21 22 23 21 20 20 20 20 20 20 20 21 21 22 22 21 21 20 19 18 17 16
21 21 21 20 21 21 22 23 23 23 24 24 24 23 22 21 22 21 20 17 17 17
21 21 22 22 23 24 24 25 25 25 24 24 25 22 19 21 20 20 18 17 16 16
19 20 21 22 23 23 24 24 25 25 23 21 19 20 18 20 21 20 21 23 23 21

GFSNIL_850_spd_108.txt.gz
Wind_Speed
12 8 4 4 8 10 10 11 13 11 12 14 15 18 21 22 20 22 14 7 11 17
14 13 11 11 12 11 7 12 12 11 14 16 18 20 20 23 23 25 23 24 15 9
11 11 12 12 11 11 9 10 12 13 14 15 17 17 19 21 19 21 27 23 21 22
9 9 10 10 10 11 11 12 13 15 15 16 17 16 16 16 16 16 18 25 25 25
10 11 11 12 13 14 15 16 18 19 20 20 20 20 19 18 17 17 15 14 15 16
11 12 13 14 15 16 17 18 20 20 20 20 20 22 20 19 19 19 18 18 18 18
11 12 13 15 17 19 20 21 22 22 21 21 20 19 19 21 21 20 18 18 18 18
12 14 17 19 21 22 23 23 22 22 21 20 20 20 25 26 26 24 24 22 21 21
15 18 20 22 23 23 21 20 20 20 20 20 20 19 21 22 24 22 22 23 22 22
18 20 22 24 23 22 21 22 21 21 22 22 22 22 22 22 23 23 22 21 20 20
21 23 24 22 20 20 21 21 22 22 23 23 23 23 21 21 23 23 21 19 19 18
21 23 22 21 22 23 24 23 23 23 23 23 22 21 21 19 24 26 22 20 17 18
21 21 21 21 22 22 22 23 23 23 22 22 22 20 18 18 22 25 27 25 24 23
20 20 20 22 22 23 23 23 23 23 23 22 22 21 19 19 22 24 26 27 29 26

GFSNIL_850_spd_111.txt.gz
Wind_Speed
12 12 10 7 8 9 9 9 8 9 9 11 13 16 17 17 19 19 19 23 24 22
11 10 11 11 11 11 10 11 12 13 13 13 14 16 18 19 19 19 19 20 22 24
10 10 11 10 10 10 10 10 12 12 13 14 15 16 17 17 18 19 20 22 22 26
8 9 10 11 11 12 12 13 14 15 16 17 18 18 17 17 18 19 19 17 19 19
10 11 11 12 13 14 15 16 17 17 17 18 18 20 19 18 18 19 20 20 18 17
11 12 13 14 16 18 19 20 21 21 20 20 19 19 19 20 20 19 18 19 19 19
12 13 14 16 17 19 20 21 19 19 19 19 19 18 19 20 21 21 21 20 20 20
14 15 17 20 22 23 23 22 21 21 20 19 20 19 20 21 24 23 22 21 20 20
14 15 18 20 21 21 19 19 19 19 20 20 20 20 20 21 23 24 23 22 20 19
15 18 20 23 23 22 21 21 21 21 22 21 21 21 20 20 21 22 23 24 24 22
16 20 22 22 20 20 21 22 21 21 20 20 18 17 17 18 20 24 26 26 24 23
18 21 21 20 21 21 21 21 20 20 19 20 20 19 19 16 18 22 25 25 22 22
19 20 20 20 20 20 20 20 21 21 20 19 20 19 17 16 18 21 24 25 25 26
19 19 19 20 19 19 20 20 20 20 20 19 19 21 19 18 19 20 22 26 28 28

GFSNIL_850_spd_114.txt.gz
Wind_Speed
11 12 12 12 12 12 11 10 10 11 11 12 13 14 14 14 15 15 16 16 17 17
10 10 10 10 10 10 10 10 10 9 10 11 13 15 16 17 18 18 18 18 19 20
10 10 10 10 10 11 11 12 13 13 14 14 15 16 16 16 16 17 17 17 18 19
9 10 11 12 13 14 15 16 16 17 17 17 18 17 16 16 16 17 17 17 17 17
10 11 12 13 14 15 16 17 18 18 17 16 15 16 16 16 16 17 18 19 18 18
11 12 13 14 16 17 18 19 18 17 17 17 16 17 17 18 19 19 18 19 19 19
11 12 12 14 16 18 20 19 18 18 18 18 19 17 17 18 18 19 20 20 19 18
13 14 15 17 18 19 19 18 19 19 19 18 18 18 18 18 20 21 20 18 18 18
14 14 16 18 19 20 19 19 19 19 19 19 18 17 16 16 17 19 20 21 22 20
15 15 17 19 20 19 19 20 19 19 18 17 16 17 17 16 17 18 20 21 23 21
15 16 18 19 19 19 19 20 19 18 18 18 17 16 15 15 16 18 20 21 21 21
15 17 18 19 18 18 19 19 18 18 18 18 16 16 15 15 17 19 20 22 20 21
16 17 18 18 18 19 19 19 18 18 17 17 17 17 17 18 19 20 20 22 23 23
15 16 17 18 19 18 18 18 18 18 17 16 16 17 17 17 17 19 20 24 25 22

GFSNIL_850_spd_117.txt.gz
Wind_Speed
8 9 9 9 9 10 11 12 13 14 15 16 16 15 14 14 11 10 11 12 14 15
7 8 9 10 11 11 11 11 12 13 14 15 15 16 16 17 16 16 15 16 15 15
8 9 8 8 9 11 12 14 14 15 15 16 16 16 16 15 14 14 13 13 13 13
7 8 10 11 12 13 14 16 17 17 17 17 17 16 16 16 16 16 16 15 16 16
9 10 11 12 13 14 15 17 18 18 18 17 17 17 17 17 17 17 17 17 17 16
10 11 12 13 14 16 17 18 17 16 17 17 16 17 17 18 19 19 19 19 19 19
12 12 13 14 15 17 18 18 17 18 18 19 19 18 18 18 18 18 17 17 17 18
14 14 15 15 17 18 18 18 18 19 20 20 19 19 18 18 18 19 19 17 16 17
16 16 16 16 17 19 19 19 19 19 20 19 18 18 17 17 17 18 18 18 19 19
17 17 17 18 19 20 19 19 20 20 19 19 18 17 17 15 17 18 18 19 21 21
19 18 18 19 20 20 20 20 21 20 19 19 18 17 16 16 18 18 18 19 21 20
19 19 19 20 20 19 20 20 19 20 19 20 18 17 17 17 19 20 20 20 20 21
21 20 20 20 19 19 20 20 20 19 20 18 18 17 17 18 19 21 21 20 21 21
20 19 19 19 19 19 19 19 20 20 19 17 16 17 16 17 18 20 21 23 25 23